Torna al catalogo

STARLINK-34173

AttivoComunicazioniVLEO
NORAD 64196·PAYLOAD·🇺🇸 United States

Lanciato May 28, 2025 da Cape Canaveral Space Force Station

Loading…

Prossimi Passaggi (prossime 24 ore)

TLE

AggiornatoSource: CelesTrak SupGP

Epoca: Sep 15, 2026, 03:23 UTC

1 64196C 25113AC  26258.14145833  .00001843  00000+0  59237-4 0  2583
2 64196  53.1593 289.7072 0001319  93.5004 183.2705 15.31708476    13

Traccia STARLINK-34173 in tempo reale con AllMySat

Download on the App Store